BRO-13

operational
NORAD ID: 59107 Int'l Des: 2024-043 Owner: UNSEEN Country: F
LEOCIRCULARRETROGRADESSO

About BRO-13

Description loading...

Live Position

Loading 3D Globe...

Upcoming Passes

Altitude History

Altitude vs Time

uPlot chart will show altitude changes over time

Two-Line Element Set

1 59107U 24043K 26062.17617900 .00002992 00000-0 27004-3 0 9990
2 59107 97.8321 192.9852 0008698 2.7309 357.3958 14.96261965108763
Epoch: Mar 3, 2026 • Age: 8 hours

Current Status

Altitude 587.9 km
Velocity 7.56 km/s
Sub-Earth Point -2.62°S, 87.9°E
Launch Date Mar 4, 2024
Age 1.9 years
Type other

Technical Details

Classification Payload
Mass 15.00 kg
Dry Mass 15.00 kg
Total Mass 15.00 kg
Length 0.40 m
Diameter 0.20 m
Span 0.40 m
Shape Box
Manufacturer GOMSP
Bus Type Cubesat 8U
Phase Status In Orbit
Owner/State UNSEEN/F

Large Constellations

Loading constellations...